contact:dominique.lefevre@mio.osupytheas.fr, maurice.libes@osupytheas.fr, didier.mallarino@osupytheas.fr
Project:EMSO http://www.emso-fr.org/EMSO-France
Depth: 2436.0 m
Title:EMSO Ligure Ouest : Data MII capteur MICROCAT
DateTime_Computer,Latitude,Longitude,Temperature,Conductivity,Pressure,DateTime_Instrument
DateTime_Computer,Latitude,Longitude,degC,S m-1,dbar,DateTime_Instrument
2023-02-07T00:00:28Z,42.805,6.029,13.3034,4.60096,2470.577,2023-2-07T02:02:47Z
2023-02-07T00:03:31Z,42.805,6.029,13.3030,4.60114,2470.553,2023-2-07T02:05:50Z
2023-02-07T00:06:34Z,42.805,6.029,13.3031,4.60105,2470.553,2023-2-07T02:08:53Z
2023-02-07T00:09:37Z,42.805,6.029,13.3034,4.60093,2470.577,2023-2-07T02:11:56Z
2023-02-07T00:12:40Z,42.805,6.029,13.3040,4.60091,2470.591,2023-2-07T02:14:59Z
2023-02-07T00:15:43Z,42.805,6.029,13.3032,4.60098,2470.567,2023-2-07T02:18:02Z
2023-02-07T00:18:46Z,42.805,6.029,13.3036,4.60100,2470.553,2023-2-07T02:21:05Z
2023-02-07T00:21:49Z,42.805,6.029,13.3029,4.60127,2470.577,2023-2-07T02:24:08Z
2023-02-07T00:24:52Z,42.805,6.029,13.3034,4.60126,2470.553,2023-2-07T02:27:12Z
2023-02-07T00:27:55Z,42.805,6.029,13.3034,4.60110,2470.507,2023-2-07T02:30:15Z
2023-02-07T00:30:58Z,42.805,6.029,13.3033,4.60092,2470.567,2023-2-07T02:33:18Z
2023-02-07T00:34:02Z,42.805,6.029,13.3034,4.60092,2470.53,2023-2-07T02:36:21Z
2023-02-07T00:37:05Z,42.805,6.029,13.3025,4.60107,2470.553,2023-2-07T02:39:24Z
2023-02-07T00:40:08Z,42.805,6.029,13.3039,4.60103,2470.553,2023-2-07T02:42:27Z
2023-02-07T00:43:11Z,42.805,6.029,13.3029,4.60095,2470.553,2023-2-07T02:45:30Z
2023-02-07T00:46:14Z,42.805,6.029,13.3030,4.60092,2470.553,2023-2-07T02:48:33Z
2023-02-07T00:49:17Z,42.805,6.029,13.3031,4.60099,2470.544,2023-2-07T02:51:36Z
2023-02-07T00:52:20Z,42.805,6.029,13.3029,4.60101,2470.577,2023-2-07T02:54:39Z
2023-02-07T00:55:23Z,42.805,6.029,13.3032,4.60099,2470.553,2023-2-07T02:57:42Z
2023-02-07T00:58:26Z,42.805,6.029,13.3037,4.60103,2470.553,2023-2-07T03:00:45Z
2023-02-07T01:01:29Z,42.805,6.029,13.3033,4.60110,2470.591,2023-2-07T03:03:48Z
2023-02-07T01:04:32Z,42.805,6.029,13.3047,4.60124,2470.544,2023-2-07T03:06:52Z
2023-02-07T01:07:35Z,42.805,6.029,13.3033,4.60099,2470.53,2023-2-07T03:09:55Z
2023-02-07T01:10:38Z,42.805,6.029,13.3026,4.60092,2470.553,2023-2-07T03:12:58Z
2023-02-07T01:13:42Z,42.805,6.029,13.3031,4.60114,2470.553,2023-2-07T03:16:01Z
2023-02-07T01:16:45Z,42.805,6.029,13.3036,4.60109,2470.544,2023-2-07T03:19:04Z
2023-02-07T01:19:48Z,42.805,6.029,13.3024,4.60092,2470.53,2023-2-07T03:22:07Z
2023-02-07T01:22:51Z,42.805,6.029,13.3033,4.60089,2470.53,2023-2-07T03:25:10Z
2023-02-07T01:25:54Z,42.805,6.029,13.3033,4.60093,2470.507,2023-2-07T03:28:13Z
2023-02-07T01:28:57Z,42.805,6.029,13.3039,4.60118,2470.553,2023-2-07T03:31:16Z
2023-02-07T01:32:00Z,42.805,6.029,13.3040,4.60122,2470.567,2023-2-07T03:34:19Z
2023-02-07T01:35:03Z,42.805,6.029,13.3050,4.60113,2470.544,2023-2-07T03:37:22Z
2023-02-07T01:38:06Z,42.805,6.029,13.3034,4.60103,2470.567,2023-2-07T03:40:25Z
2023-02-07T01:41:09Z,42.805,6.029,13.3039,4.60110,2470.53,2023-2-07T03:43:28Z
2023-02-07T01:44:12Z,42.805,6.029,13.3030,4.60094,2470.544,2023-2-07T03:46:32Z
2023-02-07T01:47:15Z,42.805,6.029,13.3036,4.60109,2470.53,2023-2-07T03:49:35Z
2023-02-07T01:50:18Z,42.805,6.029,13.3041,4.60130,2470.553,2023-2-07T03:52:38Z
2023-02-07T01:53:22Z,42.805,6.029,13.3029,4.60096,2470.544,2023-2-07T03:55:41Z
2023-02-07T01:56:25Z,42.805,6.029,13.3031,4.60099,2470.553,2023-2-07T03:58:44Z
2023-02-07T01:59:28Z,42.805,6.029,13.3039,4.60107,2470.544,2023-2-07T04:01:47Z
2023-02-07T02:02:31Z,42.805,6.029,13.3046,4.60122,2470.53,2023-2-07T04:04:50Z
2023-02-07T02:05:34Z,42.805,6.029,13.3052,4.60135,2470.567,2023-2-07T04:07:53Z
2023-02-07T02:08:37Z,42.805,6.029,13.3051,4.60137,2470.591,2023-2-07T04:10:56Z
2023-02-07T02:11:40Z,42.805,6.029,13.3046,4.60144,2470.544,2023-2-07T04:13:59Z
2023-02-07T02:14:43Z,42.805,6.029,13.3048,4.60153,2470.544,2023-2-07T04:17:02Z
2023-02-07T02:17:46Z,42.805,6.029,13.3057,4.60148,2470.53,2023-2-07T04:20:05Z
2023-02-07T02:20:49Z,42.805,6.029,13.3051,4.60147,2470.553,2023-2-07T04:23:08Z
2023-02-07T02:23:52Z,42.805,6.029,13.3049,4.60137,2470.53,2023-2-07T04:26:11Z
2023-02-07T02:26:55Z,42.805,6.029,13.3054,4.60154,2470.53,2023-2-07T04:29:15Z
2023-02-07T02:29:58Z,42.805,6.029,13.3043,4.60154,2470.544,2023-2-07T04:32:18Z
2023-02-07T02:33:01Z,42.805,6.029,13.3063,4.60131,2470.53,2023-2-07T04:35:21Z
2023-02-07T02:36:05Z,42.805,6.029,13.3055,4.60139,2470.567,2023-2-07T04:38:24Z
2023-02-07T02:39:08Z,42.805,6.029,13.3071,4.60123,2470.553,2023-2-07T04:41:27Z
2023-02-07T02:42:11Z,42.805,6.029,13.3056,4.60146,2470.567,2023-2-07T04:44:30Z
2023-02-07T02:45:14Z,42.805,6.029,13.3073,4.60146,2470.544,2023-2-07T04:47:33Z
2023-02-07T02:48:17Z,42.805,6.029,13.3071,4.60122,2470.53,2023-2-07T04:50:36Z
2023-02-07T02:51:20Z,42.805,6.029,13.3070,4.60147,2470.553,2023-2-07T04:53:39Z
2023-02-07T02:54:23Z,42.805,6.029,13.3060,4.60162,2470.53,2023-2-07T04:56:42Z
2023-02-07T02:57:26Z,42.805,6.029,13.3060,4.60180,2470.53,2023-2-07T04:59:45Z
2023-02-07T03:00:29Z,42.805,6.029,13.3050,4.60174,2470.553,2023-2-07T05:02:48Z
2023-02-07T03:03:32Z,42.805,6.029,13.3056,4.60170,2470.544,2023-2-07T05:05:51Z
2023-02-07T03:06:35Z,42.805,6.029,13.3061,4.60156,2470.567,2023-2-07T05:08:55Z
2023-02-07T03:09:38Z,42.805,6.029,13.3106,4.60151,2470.553,2023-2-07T05:11:58Z
2023-02-07T03:12:41Z,42.805,6.029,13.3089,4.60182,2470.567,2023-2-07T05:15:01Z
2023-02-07T03:15:45Z,42.805,6.029,13.3061,4.60111,2470.577,2023-2-07T05:18:04Z
2023-02-07T03:18:48Z,42.805,6.029,13.3047,4.60152,2470.553,2023-2-07T05:21:07Z
2023-02-07T03:21:51Z,42.805,6.029,13.3066,4.60142,2470.507,2023-2-07T05:24:10Z
2023-02-07T03:24:54Z,42.805,6.029,13.3070,4.60148,2470.53,2023-2-07T05:27:13Z
2023-02-07T03:27:57Z,42.805,6.029,13.3075,4.60142,2470.567,2023-2-07T05:30:16Z
2023-02-07T03:31:00Z,42.805,6.029,13.3055,4.60097,2470.567,2023-2-07T05:33:19Z
2023-02-07T03:34:03Z,42.805,6.029,13.3069,4.60100,2470.553,2023-2-07T05:36:22Z
2023-02-07T03:37:06Z,42.805,6.029,13.3083,4.60123,2470.553,2023-2-07T05:39:25Z
2023-02-07T03:40:09Z,42.805,6.029,13.3072,4.60115,2470.577,2023-2-07T05:42:28Z
2023-02-07T03:43:12Z,42.805,6.029,13.3064,4.60144,2470.567,2023-2-07T05:45:31Z
2023-02-07T03:46:15Z,42.805,6.029,13.3054,4.60099,2470.544,2023-2-07T05:48:35Z
2023-02-07T03:49:18Z,42.805,6.029,13.3054,4.60105,2470.591,2023-2-07T05:51:38Z
2023-02-07T03:52:21Z,42.805,6.029,13.3063,4.60114,2470.553,2023-2-07T05:54:41Z
2023-02-07T03:55:24Z,42.805,6.029,13.3058,4.60127,2470.591,2023-2-07T05:57:44Z
2023-02-07T03:58:28Z,42.805,6.029,13.3069,4.60117,2470.591,2023-2-07T06:00:47Z
2023-02-07T04:01:31Z,42.805,6.029,13.3066,4.60134,2470.614,2023-2-07T06:03:50Z
2023-02-07T04:04:34Z,42.805,6.029,13.3073,4.60107,2470.544,2023-2-07T06:06:53Z
2023-02-07T04:07:37Z,42.805,6.029,13.3061,4.60125,2470.567,2023-2-07T06:09:56Z
2023-02-07T04:10:40Z,42.805,6.029,13.3085,4.60102,2470.6,2023-2-07T06:12:59Z
2023-02-07T04:13:43Z,42.805,6.029,13.3061,4.60110,2470.553,2023-2-07T06:16:02Z
2023-02-07T04:16:46Z,42.805,6.029,13.3059,4.60119,2470.614,2023-2-07T06:19:05Z
2023-02-07T04:19:49Z,42.805,6.029,13.3056,4.60104,2470.614,2023-2-07T06:22:08Z
2023-02-07T04:22:52Z,42.805,6.029,13.3075,4.60118,2470.591,2023-2-07T06:25:11Z
2023-02-07T04:25:55Z,42.805,6.029,13.3056,4.60112,2470.567,2023-2-07T06:28:14Z
2023-02-07T04:28:58Z,42.805,6.029,13.3076,4.60114,2470.614,2023-2-07T06:31:18Z
2023-02-07T04:32:01Z,42.805,6.029,13.3070,4.60105,2470.591,2023-2-07T06:34:21Z
2023-02-07T04:35:04Z,42.805,6.029,13.3058,4.60099,2470.577,2023-2-07T06:37:24Z
2023-02-07T04:38:08Z,42.805,6.029,13.3076,4.60104,2470.6,2023-2-07T06:40:27Z
2023-02-07T04:41:11Z,42.805,6.029,13.3046,4.60108,2470.577,2023-2-07T06:43:30Z
2023-02-07T04:44:14Z,42.805,6.029,13.3049,4.60125,2470.6,2023-2-07T06:46:33Z
2023-02-07T04:47:17Z,42.805,6.029,13.3063,4.60104,2470.637,2023-2-07T06:49:36Z
2023-02-07T04:50:20Z,42.805,6.029,13.3064,4.60110,2470.577,2023-2-07T06:52:39Z
2023-02-07T04:53:23Z,42.805,6.029,13.3067,4.60106,2470.614,2023-2-07T06:55:42Z
2023-02-07T04:56:26Z,42.805,6.029,13.3042,4.60125,2470.577,2023-2-07T06:58:45Z
2023-02-07T04:59:29Z,42.805,6.029,13.3058,4.60110,2470.614,2023-2-07T07:01:48Z
2023-02-07T05:02:32Z,42.805,6.029,13.3054,4.60107,2470.637,2023-2-07T07:04:51Z
2023-02-07T05:05:35Z,42.805,6.029,13.3065,4.60130,2470.637,2023-2-07T07:07:54Z
2023-02-07T05:08:38Z,42.805,6.029,13.3073,4.60104,2470.624,2023-2-07T07:10:58Z
2023-02-07T05:11:41Z,42.805,6.029,13.3053,4.60114,2470.646,2023-2-07T07:14:01Z
2023-02-07T05:14:44Z,42.805,6.029,13.3055,4.60114,2470.624,2023-2-07T07:17:04Z
2023-02-07T05:17:47Z,42.805,6.029,13.3059,4.60128,2470.646,2023-2-07T07:20:07Z
2023-02-07T05:20:51Z,42.805,6.029,13.3067,4.60128,2470.661,2023-2-07T07:23:10Z
2023-02-07T05:23:54Z,42.805,6.029,13.3089,4.60114,2470.6,2023-2-07T07:26:13Z
2023-02-07T05:26:57Z,42.805,6.029,13.3074,4.60111,2470.661,2023-2-07T07:29:16Z
2023-02-07T05:30:00Z,42.805,6.029,13.3084,4.60124,2470.684,2023-2-07T07:32:19Z
2023-02-07T05:33:03Z,42.805,6.029,13.3073,4.60122,2470.646,2023-2-07T07:35:22Z
2023-02-07T05:36:06Z,42.805,6.029,13.3076,4.60133,2470.646,2023-2-07T07:38:25Z
2023-02-07T05:39:09Z,42.805,6.029,13.3084,4.60128,2470.67,2023-2-07T07:41:28Z
2023-02-07T05:42:12Z,42.805,6.029,13.3075,4.60115,2470.67,2023-2-07T07:44:31Z
2023-02-07T05:45:15Z,42.805,6.029,13.3072,4.60120,2470.684,2023-2-07T07:47:34Z
2023-02-07T05:48:18Z,42.805,6.029,13.3069,4.60122,2470.684,2023-2-07T07:50:38Z
2023-02-07T05:51:21Z,42.805,6.029,13.3082,4.60131,2470.646,2023-2-07T07:53:41Z
2023-02-07T05:54:24Z,42.805,6.029,13.3081,4.60116,2470.717,2023-2-07T07:56:44Z
2023-02-07T05:57:27Z,42.805,6.029,13.3111,4.60114,2470.684,2023-2-07T07:59:47Z
2023-02-07T06:00:30Z,42.805,6.029,13.3093,4.60119,2470.707,2023-2-07T08:02:50Z
2023-02-07T06:03:34Z,42.805,6.029,13.3094,4.60114,2470.717,2023-2-07T08:05:53Z
2023-02-07T06:06:37Z,42.805,6.029,13.3097,4.60117,2470.73,2023-2-07T08:08:56Z
2023-02-07T06:09:40Z,42.805,6.029,13.3070,4.60138,2470.717,2023-2-07T08:11:59Z
2023-02-07T06:12:43Z,42.805,6.029,13.3029,4.60156,2470.73,2023-2-07T08:15:02Z
2023-02-07T06:15:46Z,42.805,6.029,13.3023,4.60228,2470.717,2023-2-07T08:18:05Z
2023-02-07T06:18:49Z,42.805,6.029,13.3027,4.60175,2470.73,2023-2-07T08:21:08Z
2023-02-07T06:21:52Z,42.805,6.029,13.3034,4.60131,2470.707,2023-2-07T08:24:11Z
2023-02-07T06:24:55Z,42.805,6.029,13.3057,4.60141,2470.73,2023-2-07T08:27:14Z
2023-02-07T06:27:58Z,42.805,6.029,13.3074,4.60120,2470.73,2023-2-07T08:30:17Z
2023-02-07T06:31:01Z,42.805,6.029,13.3047,4.60130,2470.74,2023-2-07T08:33:21Z
2023-02-07T06:34:04Z,42.805,6.029,13.3031,4.60147,2470.693,2023-2-07T08:36:24Z
2023-02-07T06:37:07Z,42.805,6.029,13.3024,4.60116,2470.74,2023-2-07T08:39:27Z
2023-02-07T06:40:10Z,42.805,6.029,13.3025,4.60108,2470.74,2023-2-07T08:42:30Z
2023-02-07T06:43:14Z,42.805,6.029,13.3026,4.60109,2470.74,2023-2-07T08:45:33Z
2023-02-07T06:46:17Z,42.805,6.029,13.3026,4.60106,2470.763,2023-2-07T08:48:36Z
2023-02-07T06:49:20Z,42.805,6.029,13.3024,4.60091,2470.777,2023-2-07T08:51:39Z
2023-02-07T06:52:23Z,42.805,6.029,13.3029,4.60090,2470.777,2023-2-07T08:54:42Z
2023-02-07T06:55:26Z,42.805,6.029,13.3025,4.60087,2470.754,2023-2-07T08:57:45Z
2023-02-07T06:58:29Z,42.805,6.029,13.3026,4.60106,2470.754,2023-2-07T09:00:48Z
2023-02-07T07:01:32Z,42.805,6.029,13.3026,4.60095,2470.777,2023-2-07T09:03:51Z
2023-02-07T07:04:35Z,42.805,6.029,13.3021,4.60093,2470.763,2023-2-07T09:06:54Z
2023-02-07T07:07:38Z,42.805,6.029,13.3023,4.60082,2470.74,2023-2-07T09:09:57Z
2023-02-07T07:10:41Z,42.805,6.029,13.3026,4.60079,2470.787,2023-2-07T09:13:01Z
2023-02-07T07:13:44Z,42.805,6.029,13.3026,4.60079,2470.777,2023-2-07T09:16:04Z
2023-02-07T07:16:47Z,42.805,6.029,13.3024,4.60085,2470.787,2023-2-07T09:19:07Z
2023-02-07T07:19:50Z,42.805,6.029,13.3019,4.60084,2470.763,2023-2-07T09:22:10Z
2023-02-07T07:22:53Z,42.805,6.029,13.3026,4.60082,2470.8,2023-2-07T09:25:13Z
2023-02-07T07:25:57Z,42.805,6.029,13.3026,4.60081,2470.8,2023-2-07T09:28:16Z
2023-02-07T07:29:00Z,42.805,6.029,13.3025,4.60080,2470.8,2023-2-07T09:31:19Z
2023-02-07T07:32:03Z,42.805,6.029,13.3030,4.60081,2470.74,2023-2-07T09:34:22Z
2023-02-07T07:35:06Z,42.805,6.029,13.3037,4.60079,2470.787,2023-2-07T09:37:25Z
2023-02-07T07:38:09Z,42.805,6.029,13.3036,4.60081,2470.787,2023-2-07T09:40:28Z
2023-02-07T07:41:12Z,42.805,6.029,13.3030,4.60084,2470.787,2023-2-07T09:43:31Z
2023-02-07T07:44:15Z,42.805,6.029,13.3027,4.60079,2470.787,2023-2-07T09:46:34Z
2023-02-07T07:47:18Z,42.805,6.029,13.3021,4.60081,2470.763,2023-2-07T09:49:37Z
2023-02-07T07:50:21Z,42.805,6.029,13.3025,4.60082,2470.796,2023-2-07T09:52:40Z
2023-02-07T07:53:24Z,42.805,6.029,13.3024,4.60102,2470.824,2023-2-07T09:55:44Z
2023-02-07T07:56:27Z,42.805,6.029,13.3028,4.60082,2470.81,2023-2-07T09:58:47Z
2023-02-07T07:59:30Z,42.805,6.029,13.3021,4.60079,2470.81,2023-2-07T10:01:50Z
2023-02-07T08:02:33Z,42.805,6.029,13.3023,4.60079,2470.787,2023-2-07T10:04:53Z
2023-02-07T08:05:36Z,42.805,6.029,13.3026,4.60082,2470.787,2023-2-07T10:07:56Z
2023-02-07T08:08:40Z,42.805,6.029,13.3024,4.60077,2470.81,2023-2-07T10:10:59Z
2023-02-07T08:11:43Z,42.805,6.029,13.3025,4.60082,2470.824,2023-2-07T10:14:02Z
2023-02-07T08:14:46Z,42.805,6.029,13.3026,4.60084,2470.824,2023-2-07T10:17:05Z
2023-02-07T08:17:49Z,42.805,6.029,13.3024,4.60080,2470.787,2023-2-07T10:20:08Z
2023-02-07T08:20:52Z,42.805,6.029,13.3026,4.60080,2470.777,2023-2-07T10:23:11Z
2023-02-07T08:23:55Z,42.805,6.029,13.3027,4.60080,2470.8,2023-2-07T10:26:14Z
2023-02-07T08:26:58Z,42.805,6.029,13.3024,4.60081,2470.824,2023-2-07T10:29:17Z
2023-02-07T08:30:01Z,42.805,6.029,13.3026,4.60085,2470.787,2023-2-07T10:32:20Z
2023-02-07T08:33:04Z,42.805,6.029,13.3025,4.60080,2470.787,2023-2-07T10:35:24Z
2023-02-07T08:36:07Z,42.805,6.029,13.3026,4.60081,2470.81,2023-2-07T10:38:27Z
2023-02-07T08:39:10Z,42.805,6.029,13.3027,4.60081,2470.833,2023-2-07T10:41:30Z
2023-02-07T08:42:13Z,42.805,6.029,13.3026,4.60087,2470.833,2023-2-07T10:44:33Z
2023-02-07T08:45:17Z,42.805,6.029,13.3026,4.60081,2470.81,2023-2-07T10:47:36Z
2023-02-07T08:48:20Z,42.805,6.029,13.3029,4.60081,2470.81,2023-2-07T10:50:39Z
2023-02-07T08:51:23Z,42.805,6.029,13.3021,4.60080,2470.787,2023-2-07T10:53:42Z
2023-02-07T08:54:26Z,42.805,6.029,13.3024,4.60079,2470.81,2023-2-07T10:56:45Z
2023-02-07T08:57:29Z,42.805,6.029,13.3021,4.60081,2470.824,2023-2-07T10:59:48Z
2023-02-07T09:00:32Z,42.805,6.029,13.3021,4.60084,2470.81,2023-2-07T11:02:51Z
2023-02-07T09:03:35Z,42.805,6.029,13.3026,4.60081,2470.824,2023-2-07T11:05:54Z
2023-02-07T09:06:38Z,42.805,6.029,13.3026,4.60079,2470.833,2023-2-07T11:08:57Z
2023-02-07T09:09:41Z,42.805,6.029,13.3031,4.60084,2470.787,2023-2-07T11:12:01Z
2023-02-07T09:12:44Z,42.805,6.029,13.3032,4.60095,2470.81,2023-2-07T11:15:04Z
2023-02-07T09:15:47Z,42.805,6.029,13.3030,4.60079,2470.847,2023-2-07T11:18:07Z
2023-02-07T09:18:50Z,42.805,6.029,13.3035,4.60080,2470.824,2023-2-07T11:21:10Z
2023-02-07T09:21:53Z,42.805,6.029,13.3031,4.60079,2470.824,2023-2-07T11:24:13Z
2023-02-07T09:24:57Z,42.805,6.029,13.3036,4.60098,2470.763,2023-2-07T11:27:16Z
2023-02-07T09:28:00Z,42.805,6.029,13.3035,4.60092,2470.8,2023-2-07T11:30:19Z
2023-02-07T09:31:03Z,42.805,6.029,13.3036,4.60087,2470.787,2023-2-07T11:33:22Z
2023-02-07T09:34:06Z,42.805,6.029,13.3041,4.60092,2470.833,2023-2-07T11:36:25Z
2023-02-07T09:37:09Z,42.805,6.029,13.3055,4.60099,2470.787,2023-2-07T11:39:28Z
2023-02-07T09:40:12Z,42.805,6.029,13.3032,4.60094,2470.81,2023-2-07T11:42:31Z
2023-02-07T09:43:15Z,42.805,6.029,13.3034,4.60095,2470.8,2023-2-07T11:45:34Z
2023-02-07T09:46:18Z,42.805,6.029,13.3037,4.60084,2470.81,2023-2-07T11:48:38Z
2023-02-07T09:49:21Z,42.805,6.029,13.3032,4.60079,2470.81,2023-2-07T11:51:41Z
2023-02-07T09:52:24Z,42.805,6.029,13.3039,4.60086,2470.81,2023-2-07T11:54:44Z
2023-02-07T09:55:27Z,42.805,6.029,13.3047,4.60090,2470.8,2023-2-07T11:57:47Z
2023-02-07T09:58:30Z,42.805,6.029,13.3041,4.60096,2470.81,2023-2-07T12:00:50Z
2023-02-07T10:01:33Z,42.805,6.029,13.3043,4.60101,2470.81,2023-2-07T12:03:53Z
2023-02-07T10:04:37Z,42.805,6.029,13.3043,4.60095,2470.787,2023-2-07T12:06:56Z
2023-02-07T10:07:40Z,42.805,6.029,13.3044,4.60102,2470.8,2023-2-07T12:09:59Z
2023-02-07T10:10:43Z,42.805,6.029,13.3054,4.60129,2470.824,2023-2-07T12:13:02Z
2023-02-07T10:13:46Z,42.805,6.029,13.3050,4.60110,2470.8,2023-2-07T12:16:05Z
2023-02-07T10:16:49Z,42.805,6.029,13.3041,4.60115,2470.81,2023-2-07T12:19:08Z
2023-02-07T10:19:52Z,42.805,6.029,13.3044,4.60128,2470.81,2023-2-07T12:22:11Z
2023-02-07T10:22:55Z,42.805,6.029,13.3040,4.60115,2470.74,2023-2-07T12:25:14Z
2023-02-07T10:25:58Z,42.805,6.029,13.3030,4.60123,2470.8,2023-2-07T12:28:18Z
2023-02-07T10:29:01Z,42.805,6.029,13.3038,4.60122,2470.74,2023-2-07T12:31:21Z
2023-02-07T10:32:04Z,42.805,6.029,13.3038,4.60107,2470.763,2023-2-07T12:34:24Z
2023-02-07T10:35:07Z,42.805,6.029,13.3038,4.60112,2470.787,2023-2-07T12:37:27Z
2023-02-07T10:38:10Z,42.805,6.029,13.3043,4.60131,2470.787,2023-2-07T12:40:30Z
2023-02-07T10:41:14Z,42.805,6.029,13.3038,4.60106,2470.787,2023-2-07T12:43:33Z
2023-02-07T10:44:17Z,42.805,6.029,13.3039,4.60115,2470.763,2023-2-07T12:46:36Z
2023-02-07T10:47:20Z,42.805,6.029,13.3039,4.60112,2470.787,2023-2-07T12:49:39Z
2023-02-07T10:50:23Z,42.805,6.029,13.3035,4.60135,2470.777,2023-2-07T12:52:42Z
2023-02-07T10:53:26Z,42.805,6.029,13.3039,4.60099,2470.74,2023-2-07T12:55:45Z
2023-02-07T10:56:29Z,42.805,6.029,13.3041,4.60126,2470.763,2023-2-07T12:58:48Z
2023-02-07T10:59:32Z,42.805,6.029,13.3036,4.60125,2470.777,2023-2-07T13:01:51Z
2023-02-07T11:02:35Z,42.805,6.029,13.3033,4.60110,2470.74,2023-2-07T13:04:54Z
2023-02-07T11:05:38Z,42.805,6.029,13.3034,4.60116,2470.754,2023-2-07T13:07:58Z
2023-02-07T11:08:41Z,42.805,6.029,13.3041,4.60119,2470.754,2023-2-07T13:11:01Z
2023-02-07T11:11:44Z,42.805,6.029,13.3043,4.60139,2470.75,2023-2-07T13:14:04Z
2023-02-07T11:14:47Z,42.805,6.029,13.3040,4.60123,2470.763,2023-2-07T13:17:07Z
2023-02-07T11:17:50Z,42.805,6.029,13.3026,4.60110,2470.754,2023-2-07T13:20:10Z
2023-02-07T11:20:54Z,42.805,6.029,13.3034,4.60114,2470.726,2023-2-07T13:23:13Z
2023-02-07T11:23:57Z,42.805,6.029,13.3036,4.60113,2470.707,2023-2-07T13:26:16Z
2023-02-07T11:27:00Z,42.805,6.029,13.3034,4.60113,2470.693,2023-2-07T13:29:19Z
2023-02-07T11:30:03Z,42.805,6.029,13.3032,4.60115,2470.754,2023-2-07T13:32:22Z
2023-02-07T11:33:06Z,42.805,6.029,13.3046,4.60129,2470.73,2023-2-07T13:35:25Z
2023-02-07T11:36:09Z,42.805,6.029,13.3042,4.60112,2470.74,2023-2-07T13:38:28Z
2023-02-07T11:39:12Z,42.805,6.029,13.3042,4.60108,2470.717,2023-2-07T13:41:31Z
2023-02-07T11:42:15Z,42.805,6.029,13.3037,4.60120,2470.717,2023-2-07T13:44:35Z
2023-02-07T11:45:18Z,42.805,6.029,13.3036,4.60106,2470.754,2023-2-07T13:47:38Z
2023-02-07T11:48:21Z,42.805,6.029,13.3039,4.60119,2470.73,2023-2-07T13:50:41Z
2023-02-07T11:51:24Z,42.805,6.029,13.3032,4.60133,2470.74,2023-2-07T13:53:44Z
2023-02-07T11:54:27Z,42.805,6.029,13.3040,4.60125,2470.717,2023-2-07T13:56:47Z
2023-02-07T11:57:31Z,42.805,6.029,13.3039,4.60109,2470.693,2023-2-07T13:59:50Z
2023-02-07T12:00:34Z,42.805,6.029,13.3031,4.60124,2470.74,2023-2-07T14:02:53Z
2023-02-07T12:03:37Z,42.805,6.029,13.3034,4.60119,2470.717,2023-2-07T14:05:56Z
2023-02-07T12:06:40Z,42.805,6.029,13.3039,4.60117,2470.693,2023-2-07T14:08:59Z
2023-02-07T12:09:43Z,42.805,6.029,13.3038,4.60120,2470.717,2023-2-07T14:12:02Z
2023-02-07T12:12:46Z,42.805,6.029,13.3042,4.60134,2470.693,2023-2-07T14:15:05Z
2023-02-07T12:15:49Z,42.805,6.029,13.3037,4.60119,2470.693,2023-2-07T14:18:08Z
2023-02-07T12:18:52Z,42.805,6.029,13.3034,4.60137,2470.73,2023-2-07T14:21:12Z
2023-02-07T12:21:55Z,42.805,6.029,13.3041,4.60130,2470.73,2023-2-07T14:24:15Z
2023-02-07T12:24:58Z,42.805,6.029,13.3044,4.60131,2470.707,2023-2-07T14:27:18Z
2023-02-07T12:28:01Z,42.805,6.029,13.3045,4.60135,2470.707,2023-2-07T14:30:21Z
2023-02-07T12:31:04Z,42.805,6.029,13.3042,4.60120,2470.67,2023-2-07T14:33:24Z
2023-02-07T12:34:07Z,42.805,6.029,13.3037,4.60132,2470.693,2023-2-07T14:36:27Z
2023-02-07T12:37:11Z,42.805,6.029,13.3029,4.60110,2470.67,2023-2-07T14:39:30Z
2023-02-07T12:40:14Z,42.805,6.029,13.3033,4.60108,2470.693,2023-2-07T14:42:33Z
2023-02-07T12:43:17Z,42.805,6.029,13.3034,4.60108,2470.693,2023-2-07T14:45:36Z
2023-02-07T12:46:20Z,42.805,6.029,13.3036,4.60140,2470.707,2023-2-07T14:48:39Z
2023-02-07T12:49:23Z,42.805,6.029,13.3045,4.60130,2470.684,2023-2-07T14:51:42Z
2023-02-07T12:52:26Z,42.805,6.029,13.3034,4.60139,2470.707,2023-2-07T14:54:45Z
2023-02-07T12:55:29Z,42.805,6.029,13.3038,4.60123,2470.684,2023-2-07T14:57:48Z
2023-02-07T12:58:32Z,42.805,6.029,13.3051,4.60133,2470.707,2023-2-07T15:00:52Z
2023-02-07T13:01:35Z,42.805,6.029,13.3042,4.60150,2470.684,2023-2-07T15:03:55Z
2023-02-07T13:04:38Z,42.805,6.029,13.3039,4.60135,2470.67,2023-2-07T15:06:58Z
2023-02-07T13:07:41Z,42.805,6.029,13.3028,4.60104,2470.661,2023-2-07T15:10:01Z
2023-02-07T13:10:44Z,42.805,6.029,13.3030,4.60104,2470.684,2023-2-07T15:13:04Z
2023-02-07T13:13:47Z,42.805,6.029,13.3035,4.60123,2470.67,2023-2-07T15:16:07Z
2023-02-07T13:16:51Z,42.805,6.029,13.3038,4.60137,2470.67,2023-2-07T15:19:10Z
2023-02-07T13:19:54Z,42.805,6.029,13.3030,4.60137,2470.661,2023-2-07T15:22:13Z
2023-02-07T13:22:57Z,42.805,6.029,13.3031,4.60095,2470.624,2023-2-07T15:25:16Z
2023-02-07T13:26:00Z,42.805,6.029,13.3035,4.60117,2470.707,2023-2-07T15:28:19Z
2023-02-07T13:29:03Z,42.805,6.029,13.3041,4.60142,2470.646,2023-2-07T15:31:22Z
2023-02-07T13:32:06Z,42.805,6.029,13.3033,4.60102,2470.646,2023-2-07T15:34:25Z
2023-02-07T13:35:09Z,42.805,6.029,13.3031,4.60120,2470.661,2023-2-07T15:37:29Z
2023-02-07T13:38:12Z,42.805,6.029,13.3028,4.60117,2470.684,2023-2-07T15:40:32Z
2023-02-07T13:41:15Z,42.805,6.029,13.3029,4.60091,2470.646,2023-2-07T15:43:35Z
2023-02-07T13:44:18Z,42.805,6.029,13.3035,4.60130,2470.67,2023-2-07T15:46:38Z
2023-02-07T13:47:21Z,42.805,6.029,13.3032,4.60115,2470.67,2023-2-07T15:49:41Z
2023-02-07T13:50:24Z,42.805,6.029,13.3051,4.60140,2470.684,2023-2-07T15:52:44Z
2023-02-07T13:53:28Z,42.805,6.029,13.3065,4.60127,2470.67,2023-2-07T15:55:47Z
2023-02-07T13:56:31Z,42.805,6.029,13.3040,4.60117,2470.67,2023-2-07T15:58:50Z
2023-02-07T13:59:34Z,42.805,6.029,13.3036,4.60122,2470.646,2023-2-07T16:01:53Z
2023-02-07T14:02:37Z,42.805,6.029,13.3034,4.60098,2470.637,2023-2-07T16:04:56Z
2023-02-07T14:05:40Z,42.805,6.029,13.3044,4.60097,2470.646,2023-2-07T16:07:59Z
2023-02-07T14:08:43Z,42.805,6.029,13.3031,4.60107,2470.624,2023-2-07T16:11:02Z
2023-02-07T14:11:46Z,42.805,6.029,13.3031,4.60112,2470.637,2023-2-07T16:14:05Z
2023-02-07T14:14:49Z,42.805,6.029,13.3035,4.60113,2470.637,2023-2-07T16:17:09Z
2023-02-07T14:17:52Z,42.805,6.029,13.3040,4.60121,2470.646,2023-2-07T16:20:12Z
2023-02-07T14:20:55Z,42.805,6.029,13.3048,4.60115,2470.637,2023-2-07T16:23:15Z
2023-02-07T14:23:58Z,42.805,6.029,13.3034,4.60115,2470.624,2023-2-07T16:26:18Z
2023-02-07T14:27:01Z,42.805,6.029,13.3047,4.60137,2470.637,2023-2-07T16:29:21Z
2023-02-07T14:30:04Z,42.805,6.029,13.3033,4.60115,2470.624,2023-2-07T16:32:24Z
2023-02-07T14:33:08Z,42.805,6.029,13.3035,4.60099,2470.624,2023-2-07T16:35:27Z
2023-02-07T14:36:11Z,42.805,6.029,13.3031,4.60109,2470.624,2023-2-07T16:38:30Z
2023-02-07T14:39:14Z,42.805,6.029,13.3039,4.60126,2470.614,2023-2-07T16:41:33Z
2023-02-07T14:42:17Z,42.805,6.029,13.3035,4.60114,2470.637,2023-2-07T16:44:36Z
2023-02-07T14:45:20Z,42.805,6.029,13.3036,4.60107,2470.614,2023-2-07T16:47:39Z
2023-02-07T14:48:23Z,42.805,6.029,13.3041,4.60112,2470.6,2023-2-07T16:50:42Z
2023-02-07T14:51:26Z,42.805,6.029,13.3032,4.60107,2470.624,2023-2-07T16:53:46Z
2023-02-07T14:54:29Z,42.805,6.029,13.3030,4.60104,2470.624,2023-2-07T16:56:49Z
2023-02-07T14:57:32Z,42.805,6.029,13.3032,4.60107,2470.6,2023-2-07T16:59:52Z
2023-02-07T15:00:35Z,42.805,6.029,13.3034,4.60106,2470.624,2023-2-07T17:02:55Z
2023-02-07T15:03:38Z,42.805,6.029,13.3039,4.60102,2470.624,2023-2-07T17:05:58Z
2023-02-07T15:06:41Z,42.805,6.029,13.3037,4.60137,2470.637,2023-2-07T17:09:01Z
2023-02-07T15:09:45Z,42.805,6.029,13.3036,4.60153,2470.6,2023-2-07T17:12:04Z
2023-02-07T15:12:48Z,42.805,6.029,13.3035,4.60118,2470.6,2023-2-07T17:15:07Z